LZ3VG Weather Reports


Display with metric or nautical units.
time (UTC)temp
F
wind
direction
speed
MPH
gust
MPH
rain 1hr
in
rain 24hr
in
rain mn
in
humidity
%
barometer
mb
20260505041038 43 204 5.0 8.0 0.00 0.00 0.00 79 1016.0
20260505040030 43 215 5.0 9.0 0.00 0.00 0.00 78 1015.9
20260505035022 43 231 7.0 11.0 0.00 0.00 0.00 79 1015.8
20260505034030 42 180 3.0 8.0 0.00 0.00 0.00 83 1015.8
20260505033022 42 196 3.0 5.0 0.00 0.00 0.00 83 1015.9
20260505032046 42 116 3.0 6.0 0.00 0.00 0.00 81 1015.6
20260505031022 42 220 4.0 8.0 0.00 0.00 0.00 81 1015.6
20260505030046 41 242 5.0 8.0 0.00 0.00 0.00 82 1015.5
20260505025038 41 220 5.0 7.0 0.00 0.00 0.00 85 1015.5
20260505024050 41 223 6.0 9.0 0.00 0.00 0.00 86 1015.5
20260505023022 41 235 4.0 7.0 0.00 0.00 0.00 84 1015.4
20260505022030 42 223 7.0 11.0 0.00 0.00 0.00 80 1015.5
20260505021023 42 230 6.0 10.0 0.00 0.00 0.00 82 1015.5
20260505020046 41 238 6.0 11.0 0.00 0.00 0.00 86 1015.5
20260505015023 41 240 8.0 11.0 0.00 0.00 0.00 85 1015.6
20260505014047 41 231 6.0 9.0 0.00 0.00 0.00 86 1015.6
20260505013023 42 224 6.0 9.0 0.00 0.00 0.00 85 1015.6
20260505012030 42 211 5.0 9.0 0.00 0.00 0.00 84 1015.7
20260505011034 42 199 3.0 7.0 0.00 0.00 0.00 82 1015.6
20260505010046 42 217 4.0 9.0 0.00 0.00 0.00 82 1015.7
20260505005024 43 232 6.0 9.0 0.00 0.00 0.00 78 1015.7
20260505004047 43 219 8.0 13.0 0.00 0.00 0.00 78 1015.7
20260505003058 43 232 6.0 9.0 0.00 0.00 0.00 80 1015.7
20260505002106 43 229 6.0 9.0 0.00 0.00 0.00 81 1015.7
20260505001058 43 181 3.0 6.0 0.00 0.00 0.00 79 1015.7
20260505000030 42 233 4.0 7.0 0.00 0.00 0.00 80 1015.8
20260504235054 42 228 4.0 7.0 0.00 0.00 0.00 82 1015.9
20260504234030 42 237 4.0 8.0 0.00 0.00 0.00 82 1016.0
20260504233022 43 234 5.0 8.0 0.00 0.00 0.00 82 1015.9
20260504232046 44 83 1.0 2.0 0.00 0.00 0.00 80 1016.0
20260504231058 44 250 2.0 3.0 0.00 0.00 0.00 76 1016.1
20260504230049 44 242 2.0 6.0 0.00 0.00 0.00 78 1016.2
20260504225038 45 224 3.0 6.0 0.00 0.00 0.00 77 1016.4
20260504224030 45 248 2.0 3.0 0.00 0.00 0.00 81 1016.3
20260504223022 46 29 1.0 2.0 0.00 0.00 0.00 80 1016.4
20260504222031 47 99 1.0 3.0 0.00 0.00 0.00 77 1016.4
20260504221022 48 123 2.0 2.0 0.00 0.00 0.00 74 1016.5
20260504220123 48 356 1.0 2.0 0.00 0.00 0.00 70 1016.6
20260504215038 49 315 2.0 6.0 0.00 0.00 0.00 65 1016.7
20260504214048 49 344 6.0 8.0 0.00 0.00 0.00 65 1016.6
20260504213025 49 326 4.0 8.0 0.00 0.00 0.00 67 1016.6
20260504212046 48 353 4.0 9.0 0.00 0.00 0.00 68 1016.6
20260504211039 48 356 3.0 6.0 0.00 0.00 0.00 67 1016.6
20260504210035 48 344 3.0 6.0 0.00 0.00 0.00 69 1016.4
20260504205053 49 339 4.0 8.0 0.00 0.00 0.00 66 1016.6
20260504204047 50 2 1.0 2.0 0.00 0.00 0.00 62 1016.5
20260504203038 50 61 0.0 1.0 0.00 0.00 0.00 62 1016.5
20260504202031 52 92 0.0 3.0 0.00 0.00 0.00 57 1016.5
20260504201034 52 354 1.0 2.0 0.00 0.00 0.00 56 1016.6
20260504200104 52 346 1.0 3.0 0.00 0.00 0.00 54 1016.5
20260504195035 52 336 1.0 2.0 0.00 0.00 0.00 55 1016.5
20260504194107 52 7 1.0 2.0 0.00 0.00 0.00 55 1016.6
20260504193048 53 348 2.0 5.0 0.00 0.00 0.00 56 1016.6
20260504192103 52 260 1.0 2.0 0.00 0.00 0.00 57 1016.7
20260504191025 53 273 1.0 5.0 0.00 0.00 0.00 58 1016.6
20260504190050 53 277 2.0 5.0 0.00 0.00 0.00 59 1016.6
20260504185022 53 341 1.0 2.0 0.00 0.00 0.00 56 1016.6
20260504184046 54 42 0.0 1.0 0.00 0.00 0.00 55 1016.5
20260504183023 54 71 1.0 2.0 0.00 0.00 0.00 54 1016.5
20260504182031 54 336 1.0 2.0 0.00 0.00 0.00 54 1016.5
20260504181039 54 70 1.0 2.0 0.00 0.00 0.00 52 1016.5
20260504180046 54 40 1.0 2.0 0.00 0.00 0.00 52 1016.4
20260504175023 54 40 0.0 1.0 0.00 0.00 0.00 53 1016.4
20260504174032 54 44 1.0 1.0 0.00 0.00 0.00 55 1016.3
20260504173039 55 39 0.0 1.0 0.00 0.00 0.00 56 1016.3
20260504172030 55 43 0.0 1.0 0.00 0.00 0.00 54 1016.2
20260504171039 56 142 2.0 3.0 0.00 0.00 0.00 52 1016.1
20260504151038 58 50 6.0 14.0 0.00 0.00 0.00 50 1015.3
20260504141022 59 60 5.0 9.0 0.00 0.00 0.00 49 1015.1
20260504110535 63 355 8.0 17.0 0.00 0.00 0.00 43 1015.3
20260504100535 63 4 8.0 14.0 0.00 0.00 0.00 41 1015.6
20260504081527 60 354 10.0 18.0 0.00 0.00 0.00 47 1015.6
20260504080559 60 337 11.0 18.0 0.00 0.00 0.00 47 1015.8
20260504050519 46 189 2.0 5.0 0.00 0.00 0.00 81 1016.5
20260504045543 45 212 3.0 7.0 0.00 0.00 0.00 82 1016.4
20260504044519 44 165 4.0 7.0 0.00 0.00 0.00 84 1016.4